Location: Bletchingley
(51.2333°N, 0.1000°W)
Time: 11:58:37
(UTC+00:00)

CZ-2C R/B - Pass Details

Date: 18 September 2020
Orbit: 785 x 870 km, 98.2° (Epoch: 23 October)

Event Time Altitude Azimuth Distance (km) Brightness Sun altitude
Rises 19:15:50 0° 18° (NNE) 3,409 5.8 -11.4°
Reaches altitude 10° 19:18:19 10° 25° (NNE) 2,481 5.1 -11.8°
Maximum altitude 19:23:35 44° 97° (E) 1,172 3.0 -12.6°
Drops below altitude 10° 19:28:54 10° 169° (S) 2,503 4.9 -13.4°
Sets 19:31:24 0° 176° (S) 3,441 5.6 -13.7°
